Location: Asheville, NC
(35.6000°N, 82.5500°W)
Time: 18:37:16
(UTC-04:00)

Vanguard 2 - Pass Details

Date: 09 March 2018
Orbit: 553 x 2939 km, 32.9° (Epoch: 19 June)

Event Time Altitude Azimuth Distance (km) Brightness Sun altitude
Rises 14:03:46 0° 260° (W) 6,525 12.7 45.6°
Reaches altitude 10° 14:07:53 10° 260° (W) 5,648 12.5 45.2°
Maximum altitude 14:25:57 81° 176° (S) 2,853 11.3 43.1°
Drops below altitude 10° 14:40:55 10° 92° (E) 4,801 11.4 41.2°
Sets 14:44:06 0° 92° (E) 5,545 11.6 40.7°
